[[{"header":{"parameterUnit":"m.s-1","parameterCategory":1,"la1":30.2991,"la2":30.254,"lo1":-89.0895,"lo2":-89.0444,"dy":0.0017,"dx":0.0017,"nx":28,"ny":28,"refTime":"2024-06-01T09:00:00:Z","depth":0,"parameterNumber":2,"parameterNumberName":"U-component_of_WINDS"},"data":[0,0,0,0,0,0,0,0,0,0,0,0,0,0,0,0,0,0,0,0,0,0,0,0,0,0,0,0,0,0,0,0,0,0,0,0,0,0,0,0,0,0,0,0,0,0,0,0,0,0,0,0,0,0,0,0,0,0,0.2006,0.2007,0,0.21,0.2101,0.2102,0.2154,0.2154,0.2154,0.2154,0.2249,0.2252,0.2254,0,0,0,0,0,0,0,0,0,0,0,0,0,0.187,0.1872,0.2006,0.2007,0.2009,0.21,0.2101,0.2103,0.2154,0.2154,0.2154,0.2154,0.2248,0.2251,0.2254,0,0,0,0,0,0,0,0,0,0,0,0,0,0.1943,0.1873,0.2006,0.2045,0.205,0.21,0.2101,0.2103,0.2154,0.2154,0.2154,0.2154,0.2248,0.2251,0.2255,0.2272,0,0,0.2266,0.2267,0,0,0,0,0,0,0,0,0.1938,0.1948,0.2038,0.2043,0.2048,0.2116,0.2088,0.216,0.2154,0.2114,0.2154,0.2155,0.2205,0.2212,0.2229,0.2277,0.2281,0.2266,0.2268,0.227,0.2271,0,0,0,0,0,0,0,0.1933,0.1944,0.2043,0.204,0.2045,0.2058,0.2068,0.2102,0.2157,0.2118,0.2122,0.2132,0.2207,0.2225,0.2231,0.2282,0.2266,0.2269,0.2271,0.2273,0.2349,0.2349,0,0,0,0,0,0,0.1922,0.1939,0.204,0.2046,0.1993,0.206,0.2072,0.2094,0.2157,0.2167,0.2132,0.2134,0.2219,0.2227,0.2235,0.2259,0.227,0.2273,0.2275,0.2349,0.2349,0.2349,0,0,0,0,0,0,0.1919,0.1931,0.2037,0.1994,0.2008,0.2062,0.2086,0.2095,0.2113,0.2168,0.2177,0.214,0.2219,0.223,0.2263,0.2263,0.2275,0.2278,0.2349,0.2349,0.2349,0.2309,0,0,0,0,0,0,0.1915,0.1929,0.1937,0.1994,0.201,0.2063,0.2086,0.2097,0.212,0.2124,0.2178,0.2187,0.222,0.2257,0.2266,0.2269,0.2281,0.2349,0.2349,0.2349,0.231,0.2307,0.2305,0,0,0,0,0,0.191,0.1922,0.1937,0.1949,0.2021,0.2063,0.2073,0.2111,0.212,0.2127,0.2162,0.2186,0.2262,0.226,0.2271,0.2274,0.2349,0.2349,0.2349,0.2311,0.2308,0.2305,0,0,0,0,0,0,0.1864,0.193,0.1948,0.1979,0.2015,0.2072,0.2083,0.2106,0.214,0.2142,0.2188,0.22,0.2228,0.2254,0.2251,0.2294,0.2308,0.231,0.2276,0.2273,0.227,0.2263,0.2284,0,0,0,0,0,0.1857,0.1886,0.1943,0.1964,0.1982,0.2029,0.2049,0.2075,0.2114,0.2129,0.2167,0.2203,0.2235,0.2256,0.2288,0.2314,0.2326,0.2322,0.2319,0.2317,0.2317,0.2332,0.2331,0.2348,0.2348,0.2348,0,0,0.1844,0.1884,0.1899,0.1956,0.1987,0.2015,0.2042,0.207,0.2092,0.2134,0.2167,0.2195,0.2239,0.2268,0.2283,0.2291,0.2315,0.2316,0.2314,0.2316,0.2332,0.233,0.2329,0.2348,0.2348,0.2348,0,0,0.1834,0.1868,0.1889,0.192,0.1967,0.1998,0.2003,0.2056,0.2077,0.2111,0.2143,0.2168,0.2223,0.2253,0.2275,0.2276,0.2298,0.2285,0.227,0.2284,0.2283,0.2282,0.2281,0.2281,0.2286,0.2286,0.2286,0,0.1812,0.1856,0.1897,0.1924,0.1948,0.1988,0.2009,0.2037,0.2091,0.2106,0.2115,0.2184,0.2217,0.2253,0.2253,0.227,0.2276,0.2279,0.228,0.2279,0.2279,0.2279,0.2279,0.2284,0.2284,0.2284,0.2284,0,0.1826,0.1856,0.1868,0.192,0.1945,0.1969,0.2013,0.2033,0.2057,0.2087,0.212,0.2161,0.2202,0.2212,0.2236,0.2252,0.2255,0.2271,0.2286,0.2275,0.2275,0.2276,0.2281,0.2282,0.2282,0.2283,0,0,0.179,0.1864,0.1868,0.1892,0.1946,0.197,0.1995,0.2036,0.2052,0.2088,0.211,0.2155,0.217,0.2195,0.2222,0.2234,0.2231,0.2249,0.225,0.2244,0.225,0.2237,0.2237,0.2246,0.2247,0.2247,0.2246,0,0.1788,0.1836,0.1873,0.1907,0.1935,0.1973,0.1995,0.203,0.2058,0.2086,0.2117,0.2148,0.2166,0.2181,0.2195,0.2228,0.2233,0.2229,0.2267,0.2268,0.2254,0.2237,0.2224,0.2222,0.2247,0.2247,0.2247,0,0.1792,0.1827,0.1863,0.1914,0.1927,0.1946,0.1986,0.2012,0.2052,0.2072,0.2099,0.2128,0.2155,0.2167,0.2206,0.2202,0.222,0.2238,0.2239,0.2244,0.2256,0.2241,0.2222,0.2221,0.2248,0.2248,0.2248,0,0.1761,0.1817,0.1846,0.1865,0.1926,0.1938,0.1963,0.2004,0.2026,0.206,0.2074,0.2111,0.2132,0.2159,0.2196,0.2202,0.223,0.2246,0.2247,0.2246,0.2251,0.225,0.2234,0.2263,0.2263,0.2263,0.2263,0,0.1754,0.1775,0.1833,0.1851,0.1875,0.1917,0.1939,0.1968,0.2004,0.2027,0.2062,0.2083,0.2131,0.2157,0.2186,0.2213,0.2222,0.2239,0.2246,0.2235,0.2233,0.2247,0.2248,0.2263,0.2263,0.2263,0.2263,0,0.1724,0.1764,0.1798,0.1852,0.1866,0.1881,0.1927,0.1945,0.1975,0.2004,0.2014,0.2061,0.2094,0.2134,0.218,0.2199,0.2223,0.2235,0.2209,0.2214,0.2213,0.2212,0.2204,0.2205,0.2234,0.2233,0.2233,0,0.1717,0.1733,0.1789,0.1807,0.1832,0.1861,0.1883,0.1925,0.1947,0.1994,0.2006,0.2042,0.2072,0.2123,0.2161,0.2196,0.2209,0.2204,0.2214,0.2202,0.2208,0.2206,0.2207,0.2201,0.22,0.22,0.2199,0,0.1699,0.1718,0.1749,0.1787,0.1813,0.1844,0.1877,0.189,0.1939,0.1961,0.1995,0.2019,0.2066,0.21,0.214,0.2166,0.219,0.2196,0.2198,0.2187,0.2171,0.2179,0.2201,0.2196,0.2196,0.2196,0.2196,0.2197,0.168,0.1696,0.1738,0.1771,0.18,0.183,0.185,0.1883,0.1912,0.1954,0.1976,0.201,0.2049,0.2105,0.2129,0.2156,0.2165,0.2168,0.2168,0.2168,0.2165,0.2167,0.2163,0.2163,0.2164,0.2164,0.2164,0,0.1664,0.1692,0.1723,0.1768,0.1793,0.1815,0.1852,0.1872,0.1901,0.1936,0.1965,0.2004,0.2038,0.2078,0.2115,0.2128,0.214,0.2136,0.2135,0.214,0.2155,0.215,0.2125,0.2125,0.2125,0.2125,0.2125,0.2125,0.1658,0.1687,0.1711,0.1754,0.1782,0.1816,0.1835,0.1862,0.189,0.1932,0.196,0.1987,0.2023,0.2062,0.2094,0.2105,0.2116,0.2109,0.2123,0.2136,0.2139,0.2142,0.2137,0.2111,0.2111,0.2106,0.2106,0.2106]},{"header":{"parameterUnit":"m.s-1","parameterCategory":1,"la1":30.2991,"la2":30.254,"lo1":-89.0895,"lo2":-89.0444,"dy":0.0017,"dx":0.0017,"nx":28,"ny":28,"refTime":"2024-06-01T09:00:00:Z","depth":0,"parameterNumber":3,"parameterNumberName":"V-component_of_WINDS"},"data":[0,0,0,0,0,0,0,0,0,0,0,0,0,0,0,0,0,0,0,0,0,0,0,0,0,0,0,0,0,0,0,0,0,0,0,0,0,0,0,0,0,0,0,0,0,0,0,0,0,0,0,0,0,0,0,0,0,0,3.4626,3.4626,0,3.4583,3.4583,3.4582,3.4533,3.4532,3.4532,3.4531,3.4484,3.4484,3.4483,0,0,0,0,0,0,0,0,0,0,0,0,0,3.4663,3.4663,3.4626,3.4626,3.4625,3.4583,3.4583,3.4582,3.4533,3.4532,3.4531,3.453,3.4484,3.4484,3.4483,0,0,0,0,0,0,0,0,0,0,0,0,0,3.4637,3.4663,3.4626,3.4596,3.4592,3.4583,3.4583,3.4582,3.4533,3.4532,3.4531,3.453,3.4485,3.4484,3.4483,3.45,0,0,3.448,3.448,0,0,0,0,0,0,0,0,3.4638,3.4635,3.4601,3.4598,3.4594,3.4562,3.4579,3.4554,3.4534,3.4556,3.4531,3.453,3.4511,3.4508,3.4502,3.4497,3.4495,3.448,3.448,3.4479,3.4479,0,0,0,0,0,0,0,3.464,3.4637,3.4609,3.46,3.4596,3.4583,3.4578,3.4574,3.454,3.4554,3.455,3.4546,3.4509,3.4503,3.4501,3.4495,3.448,3.448,3.4479,3.4479,3.4502,3.4503,0,0,0,0,0,0,3.4647,3.4639,3.461,3.4608,3.4614,3.4584,3.4578,3.4574,3.454,3.4534,3.4547,3.4544,3.4505,3.4502,3.4499,3.4516,3.4479,3.4479,3.4478,3.4501,3.4502,3.4503,0,0,0,0,0,0,3.4648,3.4645,3.4612,3.4622,3.4617,3.4584,3.458,3.4573,3.4567,3.4535,3.4528,3.4547,3.4504,3.45,3.45,3.4514,3.4478,3.4477,3.4499,3.4501,3.4502,3.4551,0,0,0,0,0,0,3.4649,3.4645,3.4652,3.4623,3.4617,3.4615,3.4581,3.4573,3.4567,3.4562,3.4533,3.4527,3.4503,3.4502,3.4499,3.4512,3.4477,3.4498,3.45,3.4502,3.4548,3.4555,3.456,0,0,0,0,0,3.4651,3.4667,3.4653,3.4649,3.4624,3.4616,3.4612,3.4585,3.4568,3.4574,3.4553,3.4528,3.4513,3.4502,3.4499,3.4512,3.4497,3.4499,3.4502,3.4546,3.4553,3.456,0,0,0,0,0,0,3.4698,3.4662,3.4646,3.4654,3.4638,3.4608,3.4614,3.4593,3.4582,3.4578,3.4543,3.4537,3.4541,3.4526,3.4515,3.4526,3.4501,3.4503,3.4536,3.4543,3.4548,3.4552,3.4476,0,0,0,0,0,3.4709,3.4706,3.4675,3.4684,3.4678,3.4648,3.4643,3.4623,3.4605,3.4598,3.4577,3.456,3.4551,3.4546,3.4536,3.4546,3.4539,3.4553,3.4559,3.4564,3.4566,3.457,3.4576,3.4511,3.4511,3.4511,0,0,3.4732,3.4713,3.4713,3.4693,3.4679,3.4676,3.4642,3.464,3.4637,3.4597,3.4596,3.458,3.4559,3.4564,3.4565,3.4552,3.4582,3.4567,3.4571,3.4571,3.4573,3.458,3.4585,3.4513,3.4513,3.4512,0,0,3.4773,3.4758,3.4764,3.4751,3.473,3.471,3.4712,3.4684,3.4673,3.4671,3.4641,3.4637,3.4622,3.4609,3.46,3.4636,3.4613,3.4633,3.4663,3.4668,3.4673,3.4677,3.469,3.4695,3.4636,3.4636,3.4636,0,3.4804,3.4799,3.477,3.477,3.4763,3.4727,3.4733,3.4721,3.4698,3.4693,3.4679,3.466,3.4643,3.4645,3.4654,3.4648,3.4648,3.4636,3.4675,3.4679,3.4682,3.4694,3.4699,3.4638,3.4638,3.4638,3.4638,0,3.4838,3.4835,3.4843,3.4823,3.4816,3.4819,3.479,3.4786,3.4767,3.4748,3.4747,3.4726,3.4711,3.471,3.469,3.4709,3.4701,3.4681,3.4655,3.4692,3.4702,3.4706,3.4642,3.4641,3.464,3.464,0,0,3.4907,3.4871,3.4875,3.4865,3.484,3.4836,3.4838,3.4824,3.4822,3.4807,3.4807,3.4796,3.4778,3.4767,3.4746,3.475,3.478,3.473,3.4728,3.474,3.4799,3.4814,3.482,3.4765,3.4766,3.4766,3.4801,0,3.4943,3.4945,3.4919,3.4927,3.4923,3.489,3.4891,3.4875,3.4858,3.4852,3.4832,3.4825,3.4801,3.4795,3.4797,3.4776,3.4792,3.4773,3.4764,3.4764,3.4771,3.4825,3.4841,3.4875,3.4805,3.4805,3.4806,0,3.4986,3.4975,3.4983,3.4957,3.4955,3.4956,3.4942,3.4937,3.4918,3.4905,3.4895,3.4871,3.4869,3.4845,3.4843,3.4831,3.4826,3.4815,3.4815,3.4813,3.4787,3.4825,3.4885,3.489,3.4812,3.4811,3.4811,0,3.5035,3.5022,3.5025,3.5018,3.4988,3.499,3.4978,3.4958,3.4952,3.4939,3.4935,3.4922,3.4915,3.4905,3.4878,3.4863,3.4878,3.4852,3.4867,3.4868,3.4872,3.4872,3.4932,3.4868,3.4868,3.4868,3.4868,0,3.5078,3.5085,3.5047,3.5049,3.5055,3.5025,3.5031,3.5015,3.4998,3.4996,3.4966,3.4964,3.4929,3.4923,3.4902,3.4903,3.49,3.4889,3.4883,3.4891,3.4893,3.4887,3.4884,3.4869,3.4869,3.4869,3.4869,0,3.5135,3.511,3.5111,3.5084,3.5077,3.5082,3.5058,3.5058,3.5039,3.5037,3.5035,3.5004,3.4996,3.4968,3.4953,3.4938,3.4946,3.4935,3.4953,3.4949,3.4966,3.4965,3.5024,3.5031,3.4963,3.4964,3.4965,0,3.5164,3.5168,3.5141,3.5138,3.5127,3.5123,3.5116,3.5087,3.5081,3.5061,3.5063,3.5053,3.5043,3.5031,3.5007,3.4995,3.4983,3.5005,3.4981,3.499,3.4984,3.4984,3.4984,3.501,3.5011,3.5012,3.5012,0,3.5219,3.5206,3.5199,3.5188,3.5181,3.517,3.5158,3.5157,3.5124,3.5119,3.5111,3.5103,3.5088,3.5077,3.5062,3.5048,3.5025,3.502,3.5023,3.5032,3.5042,3.5037,3.4967,3.5019,3.5018,3.5018,3.5017,3.5017,3.5262,3.5264,3.5246,3.5239,3.5227,3.5216,3.5215,3.5196,3.5189,3.5175,3.5158,3.5151,3.5132,3.5109,3.5097,3.5091,3.5078,3.5082,3.5083,3.5085,3.5089,3.5043,3.5088,3.5088,3.5087,3.5087,3.5087,0,3.5315,3.5302,3.5296,3.528,3.5274,3.5254,3.5239,3.5235,3.5231,3.5215,3.5206,3.5197,3.5187,3.5162,3.515,3.515,3.5139,3.5148,3.5147,3.5145,3.5101,3.51,3.5157,3.5157,3.5157,3.5157,3.5157,3.5157,3.5342,3.5345,3.5331,3.5327,3.5313,3.5308,3.5301,3.5291,3.5278,3.527,3.5262,3.5246,3.5227,3.5213,3.5203,3.5196,3.5192,3.5205,3.5194,3.5154,3.5148,3.5141,3.514,3.5204,3.5204,3.5238,3.5239,3.5239]}]]